STARLINK-33815, 63497

Orbit data source: Space-Track

STARLINK-33815, 63497 is a payload satellite owned by SpaceX/Seattle (US) in LEO that was launched on Mon, 07 Apr 2025 UTC via an FALCON 9 launch vehicle from the Air Force Western Test Range (AFWTR). Payload-class satellites include a variety of spacecraft equipped with specific instruments for various scientific and technological missions. These include communications satellites like Starlink; space stations such as the ISS; scientific satellites like the Hubble; Earth observation satellites from companies like Planet Labs, Umbra, and HawkEye 360; GPS; miniature CubeSats for education and research; and military/defense satellites.

Loading next visibility...
Identifier
63497, 2025-071E
Orbit
LEO
Country
Flag of USUS
Related business
Manufacturer
SpaceX/Seattle
Mission
Operational Commercial Communications
Bus & Motor
STARLINK V2MO, Unknown motor
Mass
575 kg wet, ~530 kg dry
Launch date (UTC)
2025-04-07 (1 year ago)
Launch vehicle
FALCON 9
Launch site
Air Force Western Test Range (AFWTR)
Object type
Payload
Rocket body
Debris
Shape & HBR
Box + 2 Pan, 17.7 m
Radar Cross Section
36.964 m², Large (>1 m²)

Expand to show TLE details & history
Last TLE update: 9 hours ago

TLE from 9 hours ago
0 STARLINK-33815
1 63497U 25071E   26174.83443705  .00003968  00000-0  13952-3 0  9997
2 63497  53.1603   6.7168 0001187  73.4965 286.6166 15.31710016 69025
Epoch: 2026-06-23T20:01Z
TLE epoch observation values (Epoch: 2026-06-23T20:01:35.361Z)
Latitude
-0.00007°
Longitude
154.3191°
Altitude
471.378 km
Speed
7.632 km/s
True Right ascension
00h 26m 52s
True Declination
0° 00' 00"
Sunlit
Object was in daylight at epoch
Visualization orbit readout
Latitude
Unknown
Longitude
Unknown
Altitude
Unknown
Speed
Unknown
Apparent Right ascension
Unknown
Apparent Declination
Unknown
Sunlit
N/A
Visualization observer readout
Local Sidereal Time
16:21:18
Azimuth
Unknown
Elevation
Unknown
Doppler factor
Unknown
Orbital elements
Apogee altitude
471.78 km
Perigee altitude
470.154 km
Semi-major axis
6,849.104 km
Eccentricity
0.00012
Inclination
53.1603°
RAAN
6.7168°
Arg. of periapsis
73.4965°
True anomaly
286.60357°
Mean anomaly
286.6166°
Eccentric anomaly
286.61008°
Mean motion
3.82906 °/min
Orbital period
94.02 mins
BSTAR
0.00013952
Loading maneuver chart data...
Computing Atmospheric mass density...
Loading historical data...
Loading historical data...
Loading historical data...
Loading historical data...
Loading historical data...
Loading historical data...
Loading historical data...

Documentation

Showing up to 5 results
|